This is the latest recevied weather packets stored in our database for station/object N4AR. If no packets are shown the sender has not sent any weather packets the latest 10 day(s).
| Time | Temp. | Humidity | Pressure | Rain* | Wind** | Luminosity | Snow |
|---|---|---|---|---|---|---|---|
| 1777753331 | 15° C | 50% | 1011.5 hPa | 0 mm | - | 172 W/m² | - |
| 1777753028 | 15° C | 49% | 1011.5 hPa | 0 mm | - | 161 W/m² | - |
| 1777752724 | 15° C | 49% | 1011.7 hPa | 0 mm | - | 189 W/m² | - |
| 1777752420 | 15° C | 49% | 1011.7 hPa | 0 mm | - | 181 W/m² | - |
| 1777752116 | 15.56° C | 50% | 1011.5 hPa | 0 mm | - | 210 W/m² | - |
| 1777751815 | 15° C | 48% | 1011.6 hPa | 0 mm | - | 224 W/m² | - |
| 1777751511 | 15.56° C | 50% | 1011.6 hPa | 0 mm | - | 334 W/m² | - |
| 1777751208 | 15° C | 48% | 1011.8 hPa | 0 mm | - | 217 W/m² | - |
| 1777750904 | 15° C | 52% | 1012 hPa | 0 mm | - | 245 W/m² | - |
| 1777750601 | 15° C | 50% | 1011.9 hPa | 0 mm | - | 251 W/m² | - |
| 1777750298 | 15° C | 49% | 1012 hPa | 0 mm | - | 216 W/m² | - |
| 1777749993 | 15° C | 49% | 1012.1 hPa | 0 mm | - | 181 W/m² | - |
| 1777749691 | 15° C | 50% | 1012.2 hPa | 0 mm | - | 187 W/m² | - |
| 1777749387 | 15° C | 48% | 1012.1 hPa | 0 mm | - | 230 W/m² | - |
| 1777749085 | 15° C | 50% | 1012.1 hPa | 0 mm | - | 254 W/m² | - |
| 1777748783 | 14.44° C | 49% | 1012.4 hPa | 0 mm | - | 231 W/m² | - |
| 1777748481 | 15° C | 46% | 1012.4 hPa | 0 mm | - | 197 W/m² | - |
| 1777748174 | 14.44° C | 46% | 1012.4 hPa | 0 mm | - | 214 W/m² | - |
| 1777747872 | 15° C | 47% | 1012.3 hPa | 0 mm | - | 240 W/m² | - |
| 1777747568 | 15° C | 47% | 1012.2 hPa | 0 mm | - | 345 W/m² | - |
| 1777747263 | 15° C | 47% | 1012.2 hPa | 0 mm | - | 216 W/m² | - |
| 1777746960 | 15° C | 51% | 1012.5 hPa | 0 mm | - | 341 W/m² | - |
| 1777746656 | 15° C | 52% | 1012.3 hPa | 0 mm | - | 432 W/m² | - |
| 1777746351 | 15° C | 54% | 1012.6 hPa | 0 mm | - | 284 W/m² | - |
| 1777746047 | 15° C | 53% | 1012.5 hPa | 0 mm | - | 250 W/m² | - |
* Rain latest hour (hover to see other rain measurements)
** Current wind speed in m/s (hover to see current wind gust speed)